{"data":{"norad_id":59342,"epoch":"2026-05-24T23:17:30.263424Z","epoch_age_seconds":91686,"freshness":"FRESH","line1":"1 59342U 24057Y   26144.97048916  .00001362  00000+0  59019-4 0  9991","line2":"2 59342  43.0030 116.4153 0001142 279.1387  80.9335 15.27572329121501","mean_motion":15.27572329,"eccentricity":0.0001142,"inclination_deg":43.003,"raan_deg":116.4153,"arg_perigee_deg":279.1387,"mean_anomaly_deg":80.9335,"bstar":5.9019e-5,"rev_number":12150,"period_min":94.267222092369,"perigee_km":482.28851579408,"apogee_km":483.85561594473,"semimajor_km":6861.2090658694,"source":"CELESTRAK","updated_at":"2026-05-25T13:38:18.907875Z"}}